• în România
  • Lista ţărilor
  • Pe 7 zile
  • Temperatura apei
  • Hartă satelitară
  • Meteo pe hartă
  • Widget-uri
  • user-avatar
    Intrare

    Meteo pe oră la Yushkovo

    Astăzi, 25 Aprilie, Miercuri

    Timp Temperatura Precipitaţii Vânt Presiune Umiditate
    00:00 +6°C° 0 mm 2 m/s 738 mmHg 95%
    01:00 +6°C° 0 mm 2 m/s 738 mmHg 95%
    02:00 +6°C° 0 mm 2 m/s 738 mmHg 96%
    03:00 +5°C° 0 mm 2 m/s 738 mmHg 94%
    04:00 +5°C° 0 mm 2 m/s 738 mmHg 93%
    05:00 +4°C° 0 mm 3 m/s 737 mmHg 92%
    06:00 +5°C° 0,3 mm 3 m/s 737 mmHg 89%
    07:00 +7°C° 0,3 mm 3 m/s 737 mmHg 87%
    08:00 +7°C° 0,3 mm 4 m/s 737 mmHg 84%
    09:00 +7°C° 0,2 mm 4 m/s 737 mmHg 80%
    10:00 +8°C° 0,2 mm 4 m/s 737 mmHg 75%
    11:00 +9°C° 0,2 mm 5 m/s 737 mmHg 70%
    12:00 +10°C° 0,1 mm 5 m/s 737 mmHg 66%
    13:00 +10°C° 0,1 mm 5 m/s 737 mmHg 61%
    14:00 +12°C° 0,1 mm 5 m/s 736 mmHg 57%
    15:00 +12°C° 0 mm 5 m/s 736 mmHg 57%
    16:00 +11°C° 0 mm 4 m/s 736 mmHg 58%
    17:00 +11°C° 0 mm 4 m/s 736 mmHg 58%
    18:00 +10°C° 0 mm 3 m/s 736 mmHg 64%
    19:00 +8°C° 0 mm 2 m/s 736 mmHg 70%
    20:00 +7°C° 0 mm 2 m/s 736 mmHg 76%
    21:00 +7°C° 0,2 mm 2 m/s 735 mmHg 80%
    22:00 +7°C° 0,2 mm 2 m/s 734 mmHg 83%
    23:00 +7°C° 0,2 mm 2 m/s 734 mmHg 86%

    Mâine, 26 Aprilie, Joi

    Timp Temperatura Precipitaţii Vânt Presiune Umiditate
    00:00 +7°C° 0,9 mm 2 m/s 733 mmHg 89%
    01:00 +7°C° 0,9 mm 2 m/s 733 mmHg 92%
    02:00 +7°C° 0,9 mm 3 m/s 732 mmHg 94%
    03:00 +8°C° 0,3 mm 3 m/s 732 mmHg 93%
    04:00 +8°C° 0,3 mm 3 m/s 731 mmHg 92%
    05:00 +7°C° 0,3 mm 4 m/s 731 mmHg 91%
    06:00 +7°C° 0,2 mm 4 m/s 732 mmHg 90%
    07:00 +7°C° 0,2 mm 5 m/s 732 mmHg 88%
    08:00 +7°C° 0,2 mm 6 m/s 732 mmHg 86%
    09:00 +7°C° 0,2 mm 6 m/s 733 mmHg 83%
    10:00 +7°C° 0,2 mm 6 m/s 734 mmHg 81%
    11:00 +7°C° 0,2 mm 6 m/s 735 mmHg 78%
    12:00 +8°C° 0,1 mm 6 m/s 736 mmHg 73%
    13:00 +9°C° 0,1 mm 6 m/s 736 mmHg 68%
    14:00 +10°C° 0,1 mm 6 m/s 737 mmHg 63%
    15:00 +10°C° 0,2 mm 5 m/s 737 mmHg 63%
    16:00 +10°C° 0,2 mm 5 m/s 738 mmHg 63%
    17:00 +11°C° 0,2 mm 4 m/s 738 mmHg 63%
    18:00 +8°C° 0 mm 4 m/s 738 mmHg 69%
    19:00 +8°C° 0 mm 3 m/s 739 mmHg 76%
    20:00 +7°C° 0 mm 2 m/s 739 mmHg 82%
    21:00 +7°C° 0,3 mm 3 m/s 739 mmHg 84%
    22:00 +7°C° 0,3 mm 3 m/s 740 mmHg 86%
    23:00 +7°C° 0,3 mm 3 m/s 740 mmHg 88%

    Poimâine, 27 Aprilie, Vineri

    Timp Temperatura Precipitaţii Vânt Presiune Umiditate
    00:00 +5°C° 0 mm 3 m/s 740 mmHg 90%
    01:00 +4°C° 0 mm 3 m/s 740 mmHg 92%
    02:00 +5°C° 0 mm 2 m/s 741 mmHg 95%
    03:00 +4°C° 0 mm 2 m/s 741 mmHg 95%
    04:00 +4°C° 0 mm 2 m/s 741 mmHg 95%
    05:00 +4°C° 0 mm 2 m/s 742 mmHg 96%
    06:00 +4°C° 0 mm 3 m/s 742 mmHg 91%
    07:00 +5°C° 0 mm 3 m/s 743 mmHg 86%
    08:00 +7°C° 0 mm 3 m/s 743 mmHg 81%
    09:00 +9°C° 0 mm 3 m/s 743 mmHg 73%
    10:00 +10°C° 0 mm 3 m/s 743 mmHg 65%
    11:00 +11°C° 0 mm 3 m/s 743 mmHg 57%
    12:00 +12°C° 0,1 mm 4 m/s 743 mmHg 54%
    13:00 +13°C° 0,1 mm 4 m/s 743 mmHg 50%
    14:00 +14°C° 0,1 mm 4 m/s 743 mmHg 46%
    15:00 +13°C° 0,2 mm 3 m/s 743 mmHg 48%
    16:00 +13°C° 0,2 mm 3 m/s 743 mmHg 50%
    17:00 +13°C° 0,2 mm 3 m/s 743 mmHg 52%
    18:00 +12°C° 0,2 mm 2 m/s 743 mmHg 61%
    19:00 +9°C° 0,2 mm 2 m/s 744 mmHg 69%
    20:00 +8°C° 0,2 mm 1 m/s 744 mmHg 78%
    21:00 +7°C° 0,3 mm 2 m/s 744 mmHg 81%
    22:00 +7°C° 0,3 mm 2 m/s 745 mmHg 84%
    23:00 +6°C° 0,3 mm 2 m/s 745 mmHg 88%

    28 Aprilie, Sâmbătă

    Timp Temperatura Precipitaţii Vânt Presiune Umiditate
    00:00 +6°C° 0 mm 2 m/s 745 mmHg 90%
    01:00 +5°C° 0 mm 2 m/s 745 mmHg 92%
    02:00 +5°C° 0 mm 2 m/s 746 mmHg 95%
    03:00 +4°C° 0 mm 2 m/s 746 mmHg 95%
    04:00 +4°C° 0 mm 2 m/s 746 mmHg 96%
    05:00 +3°C° 0 mm 2 m/s 747 mmHg 97%
    06:00 +5°C° 0 mm 2 m/s 747 mmHg 90%
    07:00 +6°C° 0 mm 2 m/s 748 mmHg 83%
    08:00 +8°C° 0 mm 2 m/s 748 mmHg 75%
    09:00 +9°C° 0 mm 2 m/s 748 mmHg 69%
    10:00 +10°C° 0 mm 3 m/s 749 mmHg 62%
    11:00 +12°C° 0 mm 3 m/s 749 mmHg 55%
    12:00 +12°C° 0 mm 3 m/s 749 mmHg 51%
    13:00 +13°C° 0 mm 3 m/s 749 mmHg 46%
    14:00 +14°C° 0 mm 3 m/s 749 mmHg 42%
    15:00 +14°C° 0 mm 3 m/s 748 mmHg 42%
    16:00 +14°C° 0 mm 3 m/s 748 mmHg 42%
    17:00 +15°C° 0 mm 2 m/s 748 mmHg 43%
    18:00 +13°C° 0 mm 2 m/s 748 mmHg 50%
    19:00 +10°C° 0 mm 2 m/s 749 mmHg 57%
    20:00 +9°C° 0 mm 1 m/s 749 mmHg 64%
    21:00 +8°C° 0 mm 2 m/s 749 mmHg 66%
    22:00 +8°C° 0 mm 2 m/s 748 mmHg 68%
    23:00 +7°C° 0 mm 2 m/s 748 mmHg 70%

    29 Aprilie, Duminică

    Timp Temperatura Precipitaţii Vânt Presiune Umiditate
    00:00 +8°C° 0 mm 3 m/s 748 mmHg 70%
    01:00 +8°C° 0 mm 3 m/s 748 mmHg 69%
    02:00 +9°C° 0 mm 3 m/s 747 mmHg 69%
    03:00 +8°C° 0,2 mm 4 m/s 747 mmHg 70%
    04:00 +8°C° 0,2 mm 4 m/s 746 mmHg 72%
    05:00 +8°C° 0,2 mm 4 m/s 746 mmHg 74%
    06:00 +10°C° 0,3 mm 4 m/s 746 mmHg 77%
    07:00 +10°C° 0,3 mm 4 m/s 745 mmHg 81%
    08:00 +11°C° 0,3 mm 4 m/s 745 mmHg 85%
    09:00 +12°C° 0,1 mm 4 m/s 745 mmHg 81%
    10:00 +14°C° 0,1 mm 4 m/s 745 mmHg 77%
    11:00 +15°C° 0,1 mm 4 m/s 745 mmHg 73%
    12:00 +16°C° 0,1 mm 5 m/s 745 mmHg 66%
    13:00 +17°C° 0,1 mm 5 m/s 745 mmHg 58%
    14:00 +19°C° 0,1 mm 6 m/s 745 mmHg 51%
    15:00 +19°C° 0 mm 5 m/s 745 mmHg 49%
    16:00 +17°C° 0 mm 5 m/s 745 mmHg 47%
    17:00 +18°C° 0 mm 4 m/s 745 mmHg 45%
    18:00 +16°C° 0 mm 3 m/s 745 mmHg 54%
    19:00 +12°C° 0 mm 3 m/s 746 mmHg 63%
    20:00 +10°C° 0 mm 2 m/s 746 mmHg 72%
    21:00 +10°C° 0 mm 1 m/s 747 mmHg 76%
    22:00 +9°C° 0 mm 1 m/s 747 mmHg 80%
    23:00 +8°C° 0 mm 1 m/s 747 mmHg 85%

    30 Aprilie, Luni

    Timp Temperatura Precipitaţii Vânt Presiune Umiditate
    00:00 +8°C° 0 mm 1 m/s 748 mmHg 87%
    01:00 +6°C° 0 mm 0 m/s 748 mmHg 89%
    02:00 +6°C° 0 mm 0 m/s 748 mmHg 91%
    03:00 +6°C° 0 mm 0 m/s 748 mmHg 91%
    04:00 +6°C° 0 mm 0 m/s 749 mmHg 91%
    05:00 +6°C° 0 mm 0 m/s 749 mmHg 91%
    06:00 +9°C° 0 mm 1 m/s 749 mmHg 82%
    07:00 +11°C° 0 mm 1 m/s 749 mmHg 72%
    08:00 +13°C° 0 mm 1 m/s 749 mmHg 63%
    09:00 +15°C° 0 mm 1 m/s 749 mmHg 56%
    10:00 +18°C° 0 mm 1 m/s 749 mmHg 49%
    11:00 +20°C° 0 mm 1 m/s 749 mmHg 42%
    12:00 +21°C° 0 mm 1 m/s 748 mmHg 40%
    13:00 +22°C° 0 mm 1 m/s 748 mmHg 38%
    14:00 +22°C° 0 mm 1 m/s 748 mmHg 35%
    15:00 +21°C° 0 mm 2 m/s 747 mmHg 39%
    16:00 +21°C° 0 mm 2 m/s 747 mmHg 42%
    17:00 +21°C° 0 mm 2 m/s 746 mmHg 46%
    18:00 +19°C° 0 mm 2 m/s 746 mmHg 54%
    19:00 +17°C° 0 mm 2 m/s 746 mmHg 63%
    20:00 +16°C° 0 mm 2 m/s 746 mmHg 71%
    21:00 +15°C° 0,1 mm 2 m/s 746 mmHg 75%
    22:00 +14°C° 0,1 mm 3 m/s 746 mmHg 79%
    23:00 +13°C° 0,1 mm 3 m/s 745 mmHg 83%
    Arată mai mult